Location: Byhalia Creek
(34.8270°N, 89.8040°W)
Time: 07:54:17
(UTC+00:00)

Cosmos 2322 - Pass Details

Date: 22 April 2026
Orbit: 839 x 854 km, 71.0° (Epoch: 15 May)

Event Time Altitude Azimuth Distance (km) Brightness Sun altitude
Rises 10:09:25 0° 339° (NNW) 3,423 6.9 -14.1°
Reaches altitude 10° 10:11:53 10° 340° (NNW) 2,483 6.2 -13.7°
Maximum altitude 10:17:37 84° 69° (ENE) 857 3.8 -12.6°
Drops below altitude 10° 10:23:16 10° 158° (SSE) 2,458 6.1 -11.5°
Sets 10:25:42 0° 159° (SSE) 3,387 6.8 -11.1°
